Regional Weather Roundup
Issued by NWS

Home | Current Version | Previous Version | Text Only | Print | Product List | Glossary On
Versions: 1 2 3 4 5 6 7 8 9 10 11 12 13 14 15 16 17 18 19 20 21 22 23 24 25 26 27 28 29 30 31 32 33 34 35 36 37 38 39 40 41 42 43 44 45 46 47 48 49 50
000
ASUS44 KOUN 181700
RWROK

WEATHER ROUNDUP FOR OKLAHOMA
NATIONAL WEATHER SERVICE NORMAN OK
1200 PM CDT FRI APR 18 2014

NOTE: "FAIR" INDICATES FEW OR NO CLOUDS BELOW 12,000 FEET WITH NO
      SIGNIFICANT WEATHER AND/OR OBSTRUCTIONS TO VISIBILITY.

OKZ001>007-009>012-014-015-017-181800-
NORTHWEST OKLAHOMA AND THE PANHANDLE

CITY           SKY/WX    TMP DP  RH WIND       PRES   REMARKS
GAGE           SUNNY     64  42  44 S16       30.20F
ENID/WOODRING  SUNNY     66  43  42 SE14      30.24F
$$

OKZ016-021>023-033>039-044-045-181800-
SOUTHWEST OKLAHOMA

CITY           SKY/WX    TMP DP  RH WIND       PRES   REMARKS
LAWTON/REGL    SUNNY     67  47  48 VRB5      30.25S
LAWTON/FT SILL SUNNY     66  47  49 VRB5      30.24S
FREDERICK      CLOUDY    59  49  69 CALM      30.24R
CLINTON        SUNNY     62  46  55 SE9       30.26F
HOBART         PTSUNNY   63  47  55 S6G16     30.25F
ALTUS AFB      CLOUDY    59  50  71 SE8       30.26S
$$

OKZ018>020-024>031-181800-
CENTRAL OKLAHOMA

CITY           SKY/WX    TMP DP  RH WIND       PRES   REMARKS
OKLAHOMA CITY  SUNNY     66  41  40 SE10      30.26F
OKC/WILEY POST SUNNY     65  39  38 SE9G16    30.26F
STILLWATER     SUNNY     66  42  41 SE7       30.26F
GUTHRIE        SUNNY     67  42  40 E8        30.26F
$$

OKZ008-013-054>072-181800-
NORTHEAST OKLAHOMA

CITY           SKY/WX    TMP DP  RH WIND       PRES   REMARKS
TULSA          SUNNY     66  44  45 VRB5      30.26F
TULSA/JONES    SUNNY     68  43  40 N6        30.27F
PONCA CITY     SUNNY     64  41  42 SE8       30.26F
BARTLESVILLE   SUNNY     64  44  48 SE6       30.29F
MUSKOGEE       SUNNY     69  44  40 NE10      30.26F
$$

OKZ032-040>043-046>053-073>077-181800-
SOUTH CENTRAL/SOUTHEAST OKLAHOMA

CITY           SKY/WX    TMP DP  RH WIND       PRES   REMARKS
MCALESTER      MOSUNNY   69  43  38 N8        30.26F
$$




USA.gov is the U.S. government's official web portal to all federal, state and local government web resources and services.